Location: Claflin County Park
(44.8478°N, 87.5507°W)
Time: 03:14:43
(UTC+00:00)

Cosmos 1428 Rocket - Pass Details

Date: 10 December 2025
Orbit: 947 x 987 km, 82.9° (Epoch: 12 January)

Event Time Altitude Azimuth Distance (km) Brightness Sun altitude
Rises 11:06:02 0° 197° (SSW) 3,643 7.4 -22.3°
Reaches altitude 10° 11:08:33 10° 201° (SSW) 2,706 6.7 -21.9°
Maximum altitude 11:14:41 62° 281° (W) 1,094 4.4 -20.8°
Drops below altitude 10° 11:20:56 10° 2° (N) 2,748 6.7 -19.8°
Sets 11:23:31 0° 6° (N) 3,703 7.5 -19.3°
